| time (UTC) | temp C | wind direction | speed KPH | gust KPH | rain 1hr cm | rain 24hr cm | rain mn cm | humidity % | barometer mb |
| 20260506163101 | 25 | 104 | 3.2 | 11.3 | 0.00 | 0.00 | 0.00 | 36 | 1009.2 |
| 20260506161547 | 25 | 60 | 6.4 | 12.9 | 0.00 | 0.00 | 0.00 | 33 | 1009.2 |
| 20260506160046 | 25 | 117 | 6.4 | 14.5 | 0.00 | 0.00 | 0.00 | 32 | 1009.2 |
| 20260506154550 | 26 | 83 | 4.8 | 14.5 | 0.00 | 0.00 | 0.00 | 32 | 1009.2 |
| 20260506153047 | 26 | 122 | 6.4 | 19.3 | 0.00 | 0.00 | 0.00 | 31 | 1009.3 |
| 20260506151544 | 26 | 95 | 8.0 | 17.7 | 0.00 | 0.00 | 0.00 | 32 | 1009.2 |
| 20260506150042 | 26 | 74 | 4.8 | 16.1 | 0.00 | 0.00 | 0.00 | 32 | 1009.4 |
| 20260506144544 | 26 | 101 | 9.7 | 17.7 | 0.00 | 0.00 | 0.00 | 30 | 1009.3 |
| 20260506143041 | 26 | 81 | 4.8 | 17.7 | 0.00 | 0.00 | 0.00 | 30 | 1009.4 |
| 20260506141539 | 27 | 144 | 4.8 | 16.1 | 0.00 | 0.00 | 0.00 | 29 | 1009.4 |
| 20260506140049 | 27 | 152 | 4.8 | 16.1 | 0.00 | 0.00 | 0.00 | 28 | 1009.4 |
| 20260506134537 | 27 | 45 | 8.0 | 16.1 | 0.00 | 0.00 | 0.00 | 30 | 1009.5 |
| 20260506133037 | 26 | 75 | 8.0 | 22.5 | 0.00 | 0.00 | 0.00 | 29 | 1009.5 |
| 20260506131535 | 27 | 77 | 9.7 | 16.1 | 0.00 | 0.00 | 0.00 | 30 | 1009.6 |
| 20260506130035 | 27 | 360 | 8.0 | 20.9 | 0.00 | 0.00 | 0.00 | 31 | 1009.7 |
| 20260506124532 | 27 | 65 | 3.2 | 12.9 | 0.00 | 0.00 | 0.00 | 29 | 1009.8 |
| 20260506123031 | 26 | 120 | 4.8 | 20.9 | 0.00 | 0.00 | 0.00 | 32 | 1009.9 |
| 20260506121530 | 27 | 127 | 4.8 | 17.7 | 0.00 | 0.00 | 0.00 | 32 | 1010.1 |
| 20260506120032 | 27 | 125 | 8.0 | 16.1 | 0.00 | 0.00 | 0.00 | 32 | 1010.3 |
| 20260506114527 | 26 | 62 | 3.2 | 16.1 | 0.00 | 0.00 | 0.00 | 32 | 1010.4 |
| 20260506113024 | 26 | 164 | 4.8 | 17.7 | 0.00 | 0.00 | 0.00 | 32 | 1010.5 |
| 20260506111527 | 26 | 76 | 4.8 | 16.1 | 0.00 | 0.00 | 0.00 | 31 | 1010.6 |
| 20260506110021 | 26 | 156 | 8.0 | 16.1 | 0.00 | 0.00 | 0.00 | 35 | 1010.8 |
| 20260506104518 | 25 | 156 | 8.0 | 16.1 | 0.00 | 0.00 | 0.00 | 35 | 1010.9 |
| 20260506103020 | 25 | 162 | 9.7 | 17.7 | 0.00 | 0.00 | 0.00 | 35 | 1011.0 |
| 20260506101513 | 25 | 172 | 6.4 | 22.5 | 0.00 | 0.00 | 0.00 | 36 | 1011.0 |
| 20260506100013 | 25 | 140 | 8.0 | 16.1 | 0.00 | 0.00 | 0.00 | 36 | 1011.1 |
| 20260506094513 | 25 | 99 | 4.8 | 19.3 | 0.00 | 0.00 | 0.00 | 38 | 1011.1 |
| 20260506093013 | 24 | 123 | 9.7 | 16.1 | 0.00 | 0.00 | 0.00 | 39 | 1011.2 |
| 20260506091508 | 24 | 86 | 9.7 | 14.5 | 0.00 | 0.00 | 0.00 | 41 | 1011.2 |
| 20260506090003 | 23 | 92 | 8.0 | 19.3 | 0.00 | 0.00 | 0.00 | 42 | 1011.3 |
| 20260506084503 | 23 | 151 | 6.4 | 17.7 | 0.00 | 0.00 | 0.00 | 43 | 1011.3 |
| 20260506083058 | 22 | 169 | 6.4 | 14.5 | 0.00 | 0.00 | 0.00 | 46 | 1011.3 |
| 20260506081554 | 21 | 85 | 9.7 | 19.3 | 0.00 | 0.00 | 0.00 | 47 | 1011.3 |
| 20260506073045 | 19 | 77 | 8.0 | 16.1 | 0.00 | 0.00 | 0.00 | 54 | 1011.5 |
| 20260506071542 | 18 | 88 | 6.4 | 12.9 | 0.00 | 0.00 | 0.00 | 56 | 1011.4 |
| 20260506061537 | 16 | 142 | 8.0 | 17.7 | 0.00 | 0.00 | 0.00 | 60 | 1011.4 |
| 20260506044516 | 12 | 319 | 0.0 | 3.2 | 0.00 | 0.00 | 0.00 | 71 | 1011.4 |
| 20260506043012 | 11 | 296 | 0.0 | 1.6 | 0.00 | 0.00 | 0.00 | 75 | 1011.4 |
| 20260506041511 | 10 | 296 | 0.0 | 3.2 | 0.00 | 0.00 | 0.00 | 77 | 1011.3 |
| 20260506040011 | 8 | 289 | 0.0 | 3.2 | 0.00 | 0.00 | 0.00 | 80 | 1011.3 |
| 20260506034509 | 7 | 284 | 0.0 | 1.6 | 0.00 | 0.00 | 0.00 | 81 | 1011.2 |
| 20260506033006 | 6 | 284 | 0.0 | 3.2 | 0.00 | 0.00 | 0.00 | 81 | 1011.0 |
| 20260506031505 | 6 | 284 | 1.6 | 3.2 | 0.00 | 0.00 | 0.00 | 81 | 1010.9 |
| 20260506030002 | 6 | 284 | 0.0 | 3.2 | 0.00 | 0.00 | 0.00 | 81 | 1010.9 |
| 20260506024613 | 6 | 284 | 0.0 | 3.2 | 0.00 | 0.00 | 0.00 | 81 | 1010.7 |
| 20260506023058 | 6 | 284 | 0.0 | 0.0 | 0.00 | 0.00 | 0.00 | 80 | 1010.6 |
| 20260506021555 | 7 | 284 | 0.0 | 0.0 | 0.00 | 0.00 | 0.00 | 80 | 1010.6 |
| 20260506020118 | 7 | 285 | 0.0 | 1.6 | 0.00 | 0.00 | 0.00 | 81 | 1010.6 |
| 20260506014551 | 7 | 285 | 0.0 | 3.2 | 0.00 | 0.00 | 0.00 | 79 | 1010.5 |
| 20260506013049 | 7 | 285 | 1.6 | 4.8 | 0.00 | 0.00 | 0.00 | 79 | 1010.5 |
| 20260506011549 | 8 | 283 | 0.0 | 1.6 | 0.00 | 0.00 | 0.00 | 78 | 1010.4 |
| 20260506010043 | 8 | 278 | 0.0 | 3.2 | 0.00 | 0.00 | 0.00 | 78 | 1010.4 |
| 20260506004544 | 8 | 278 | 0.0 | 0.0 | 0.00 | 0.00 | 0.00 | 77 | 1010.3 |
| 20260506003040 | 8 | 278 | 0.0 | 4.8 | 0.00 | 0.00 | 0.00 | 77 | 1010.3 |
| 20260506001544 | 9 | 275 | 0.0 | 0.0 | 0.00 | 0.00 | 0.00 | 76 | 1010.2 |
| 20260506000053 | 10 | 275 | 0.0 | 0.0 | 0.00 | 0.00 | 0.00 | 75 | 1010.1 |
| 20260505234536 | 10 | 275 | 0.0 | 3.2 | 0.00 | 0.00 | 0.00 | 74 | 1010.0 |
| 20260505233032 | 11 | 277 | 0.0 | 1.6 | 0.00 | 0.00 | 0.00 | 70 | 1010.1 |
| 20260505231530 | 11 | 280 | 1.6 | 3.2 | 0.00 | 0.00 | 0.00 | 71 | 1010.1 |
| 20260505230039 | 12 | 279 | 1.6 | 4.8 | 0.00 | 0.00 | 0.00 | 70 | 1010.1 |
| 20260505224524 | 12 | 269 | 0.0 | 1.6 | 0.00 | 0.00 | 0.00 | 64 | 1010.2 |
| 20260505223022 | 12 | 269 | 1.6 | 3.2 | 0.00 | 0.00 | 0.00 | 65 | 1010.2 |
| 20260505221521 | 12 | 269 | 1.6 | 3.2 | 0.00 | 0.00 | 0.00 | 66 | 1010.1 |
| 20260505220021 | 12 | 269 | 0.0 | 0.0 | 0.00 | 0.00 | 0.00 | 66 | 1010.1 |
| 20260505214519 | 12 | 269 | 0.0 | 3.2 | 0.00 | 0.00 | 0.00 | 68 | 1010.1 |
| 20260505213016 | 13 | 261 | 0.0 | 3.2 | 0.00 | 0.00 | 0.00 | 65 | 1010.0 |
| 20260505211523 | 13 | 254 | 0.0 | 0.0 | 0.00 | 0.00 | 0.00 | 64 | 1010.0 |
| 20260505210012 | 13 | 254 | 0.0 | 0.0 | 0.00 | 0.00 | 0.00 | 65 | 1009.9 |
| 20260505204511 | 12 | 277 | 0.0 | 3.2 | 0.00 | 0.00 | 0.00 | 69 | 1009.9 |
| 20260505203015 | 12 | 277 | 1.6 | 4.8 | 0.00 | 0.00 | 0.00 | 73 | 1009.8 |
| 20260505201510 | 12 | 276 | 0.0 | 3.2 | 0.00 | 0.00 | 0.00 | 73 | 1009.7 |
| 20260505200010 | 13 | 130 | 0.0 | 3.2 | 0.00 | 0.00 | 0.00 | 70 | 1009.5 |
| 20260505194509 | 13 | 204 | 0.0 | 0.0 | 0.00 | 0.00 | 0.00 | 68 | 1009.4 |
| 20260505193010 | 13 | 191 | 0.0 | 0.0 | 0.00 | 0.00 | 0.00 | 69 | 1009.2 |
| 20260505191513 | 14 | 186 | 0.0 | 1.6 | 0.00 | 0.00 | 0.00 | 69 | 1009.2 |
| 20260505190007 | 15 | 182 | 0.0 | 0.0 | 0.00 | 0.00 | 0.00 | 67 | 1009.3 |
| 20260505184507 | 16 | 177 | 0.0 | 0.0 | 0.00 | 0.00 | 0.00 | 65 | 1009.1 |
| 20260505183012 | 17 | 176 | 0.0 | 0.0 | 0.00 | 0.00 | 0.00 | 59 | 1009.1 |
| 20260505181505 | 18 | 176 | 0.0 | 0.0 | 0.00 | 0.00 | 0.00 | 55 | 1009.0 |
| 20260505180005 | 20 | 176 | 0.0 | 0.0 | 0.00 | 0.00 | 0.00 | 49 | 1009.0 |
| 20260505174505 | 21 | 176 | 0.0 | 0.0 | 0.00 | 0.00 | 0.00 | 44 | 1008.9 |
| 20260505173004 | 22 | 176 | 0.0 | 0.0 | 0.00 | 0.00 | 0.00 | 39 | 1008.8 |
| 20260505171503 | 23 | 175 | 0.0 | 3.2 | 0.00 | 0.00 | 0.00 | 38 | 1008.7 |
| 20260505170003 | 23 | 175 | 0.0 | 3.2 | 0.00 | 0.00 | 0.00 | 35 | 1008.7 |
| 20260505164505 | 25 | 175 | 0.0 | 4.8 | 0.00 | 0.00 | 0.00 | 32 | 1008.7 |